Wind_Speed
11 12 12 12 12 12 11 12 12 12 11 11 10 8 8 8 7 8 9 8 7 6 6 7 8 7 10 12 11 11 12 12 10
10 10 11 11 11 12 11 11 10 10 10 10 10 9 9 8 8 7 7 7 7 7 7 6 4 7 9 11 13 12 11 13 14
10 10 10 11 11 11 11 11 11 10 10 9 9 8 8 8 8 8 8 5 5 4 2 5 6 6 7 7 10 11 10 12 14
9 10 10 11 11 11 11 11 11 10 10 9 9 8 7 7 6 6 6 9 5 3 4 6 6 6 7 7 5 4 6 10 13
8 8 9 10 10 11 11 11 10 10 9 9 8 8 8 7 6 5 4 6 5 5 5 6 6 7 6 7 7 7 7 7 7
9 9 9 10 11 10 10 10 10 10 9 8 8 7 7 7 6 6 5 6 5 5 6 6 7 7 7 7 8 9 9 9 9
9 8 9 10 11 10 10 10 10 11 10 9 8 7 6 6 6 5 5 6 5 6 7 7 8 7 7 7 7 8 8 8 9
10 10 10 11 12 12 12 12 13 13 13 11 8 7 6 5 5 4 4 5 6 6 7 8 8 8 8 8 8 8 9 9 9
12 12 12 13 14 14 14 14 14 14 13 12 10 7 5 4 2 3 4 5 7 7 7 8 9 9 7 6 8 8 10 10 10
12 13 13 13 14 14 15 16 16 16 15 14 12 8 6 3 2 4 5 6 8 8 8 8 8 9 11 8 9 8 9 9 8
12 13 13 13 13 14 15 15 16 15 17 16 11 9 6 1 3 5 6 7 7 9 9 9 10 10 11 11 11 12 12 12 12
12 13 13 13 13 13 13 13 14 14 16 14 11 8 4 4 7 7 7 8 9 8 8 10 10 10 10 10 11 12 13 14 15
12 12 13 14 14 14 15 15 15 15 18 13 11 10 8 9 9 7 7 8 9 9 9 9 9 9 10 11 11 11 11 13 15
12 12 13 13 13 14 15 14 15 15 17 10 9 11 12 10 9 8 8 9 10 10 10 9 8 7 8 10 12 13 13 14 15
11 12 13 13 14 15 16 14 14 16 17 7 5 10 11 9 7 6 7 12 12 12 11 8 5 6 7 9 12 15 15 16 16
9 10 11 12 13 13 14 14 14 14 20 8 5 2 3 4 2 2 5 14 14 13 10 5 4 6 8 11 13 15 17 17 17
8 9 10 11 11 12 13 15 11 11 15 6 1 3 2 3 4 3 3 11 12 11 8 5 5 7 10 12 14 16 17 18 18
6 8 8 9 10 11 12 12 13 9 10 13 5 1 2 7 4 4 7 15 9 7 5 5 6 8 11 14 17 18 18 18 18
5 7 8 8 10 10 11 10 10 8 7 4 7 4 2 3 4 3 7 18 11 10 1 1 5 8 13 16 18 18 17 16 17
4 6 6 7 8 9 9 9 9 8 6 5 3 2 1 0 2 4 8 11 11 12 3 5 4 12 16 17 17 17 16 15 15
Wind_Direction
34 34 33 32 29 26 27 27 23 23 23 20 13 8 352 344 323 297 286 281 286 296 306 310 313 321 274 254 250 252 252 249 251
28 27 28 27 27 29 28 25 25 24 24 19 16 13 7 5 359 343 315 295 287 290 327 330 309 311 300 266 251 256 255 256 252
34 32 31 30 27 24 26 26 25 23 21 17 12 11 10 11 16 18 20 20 14 356 19 9 360 350 341 329 270 262 266 260 257
41 46 37 29 24 23 24 21 19 17 15 11 9 5 356 3 14 29 41 37 24 23 3 1 351 339 325 315 343 312 281 274 267
31 31 29 20 17 22 23 20 17 13 11 10 8 8 8 9 7 14 22 20 6 347 342 344 339 329 331 315 301 293 290 289 288
36 31 22 17 16 19 18 15 11 7 3 1 360 1 11 14 14 12 9 17 8 1 349 347 344 333 329 329 318 301 292 291 289
33 30 24 19 20 18 18 14 9 8 8 2 356 356 359 5 14 20 22 21 14 6 1 350 344 338 333 331 325 318 317 308 297
32 26 18 14 15 14 10 7 7 6 3 0 357 350 348 354 12 43 52 37 14 12 8 360 349 332 322 319 315 317 316 314 302
26 19 13 10 7 6 3 2 2 360 356 351 348 344 340 353 28 81 59 46 49 42 30 25 25 17 3 339 324 316 310 303 306
18 13 10 7 5 2 1 0 2 358 355 349 343 337 333 355 67 112 79 61 56 44 30 17 2 15 18 23 21 14 6 357 331
11 13 10 6 5 3 2 0 1 359 356 352 349 340 325 329 122 114 81 58 51 45 37 29 19 19 13 11 13 13 4 354 344
14 14 12 9 7 5 4 4 3 1 1 1 2 1 354 154 132 105 76 46 39 30 22 20 21 18 14 8 6 5 2 356 351
15 16 16 12 9 9 11 8 8 5 4 18 31 38 75 116 118 102 63 38 27 22 13 2 1 10 16 10 5 1 357 351 347
18 16 16 16 17 16 16 16 15 8 7 32 55 70 95 107 110 91 58 35 19 9 358 349 347 359 9 15 8 2 356 351 348
19 21 23 22 21 21 20 19 23 15 8 24 86 82 96 113 103 72 37 21 10 2 348 343 352 6 10 10 7 5 1 357 347
28 30 31 29 27 26 22 26 27 22 18 14 23 50 109 114 96 85 42 22 11 358 351 355 18 24 15 10 1 359 359 357 353
36 36 36 33 32 30 29 29 29 31 30 36 17 9 333 309 328 230 20 9 10 10 29 55 44 26 12 3 356 354 356 355 353
38 40 41 42 40 39 33 31 32 26 36 39 43 13 355 330 334 324 354 7 22 32 48 53 41 23 11 358 349 347 348 352 350
40 41 37 37 34 33 32 30 35 43 42 52 41 60 16 337 319 304 333 346 358 9 134 183 55 21 5 351 340 339 342 347 347
35 33 29 26 29 27 25 28 29 29 33 41 35 46 12 150 282 303 322 337 349 345 279 204 17 8 1 348 339 338 342 347 348
Height
838 837 836 835 833 832 831 831 830 828 827 826 825 824 822 822 821 821 821 822 822 822 822 822 822 821 821 820 820 821 821 822 822
839 837 836 835 834 833 832 831 830 829 827 826 825 823 822 821 820 820 819 820 820 821 821 820 819 819 818 818 818 819 819 820 820
839 838 837 836 835 834 832 831 830 829 827 826 824 823 822 821 820 820 819 819 819 819 820 819 818 817 817 816 816 817 816 817 818
839 838 837 836 835 834 833 831 830 828 826 825 824 823 822 821 820 819 819 819 820 819 819 818 818 816 815 815 814 814 814 814 815
839 838 837 836 835 833 832 831 829 828 826 825 823 822 821 821 820 820 819 819 819 819 818 817 816 816 814 814 814 813 812 812 812
839 838 837 836 835 833 832 830 829 827 826 825 823 822 821 821 820 820 819 819 819 818 818 816 815 814 813 812 812 812 810 810 810
840 839 838 836 835 834 832 830 829 827 826 824 823 822 821 820 820 819 819 819 818 817 816 815 814 813 812 811 811 810 809 807 807
841 839 838 837 835 834 832 830 829 827 826 824 822 821 820 820 819 819 819 818 818 817 816 814 813 812 810 810 808 808 807 806 804
841 840 839 837 836 834 833 831 829 828 826 824 823 821 820 819 819 819 818 818 818 817 815 814 813 811 810 808 807 807 805 803 803
842 841 839 838 836 835 833 831 829 827 825 823 821 820 819 819 818 818 819 818 817 817 816 814 813 811 809 807 806 804 803 801 801
842 841 839 838 836 835 833 831 828 827 825 822 820 819 818 818 819 819 819 819 818 817 816 814 813 811 809 808 807 805 803 801 800
843 841 840 838 836 835 832 830 828 826 823 820 818 817 816 817 819 820 820 820 819 818 816 814 812 811 810 808 807 804 802 800 799
843 841 840 838 836 835 832 830 828 826 822 819 818 817 816 818 819 820 820 820 819 818 817 815 813 810 809 808 806 804 802 800 798
843 842 840 838 836 834 832 830 828 825 822 820 819 818 818 819 820 820 821 820 819 818 816 814 813 811 809 807 806 804 801 799 796
844 843 841 839 837 835 833 831 829 827 823 821 820 820 819 820 820 820 820 820 819 817 815 813 812 810 809 806 805 803 801 798 795
843 842 839 838 836 834 833 831 829 826 824 824 824 823 821 819 819 818 819 819 818 816 814 812 811 810 809 806 804 802 800 797 794
842 841 840 839 837 836 834 831 830 828 825 825 826 825 825 823 819 818 817 816 815 814 812 811 811 810 808 806 803 801 797 795 793
843 841 840 839 837 835 834 833 831 830 829 828 828 826 826 825 821 821 819 816 813 812 812 810 810 809 807 804 802 799 796 794 791
844 842 842 840 839 838 836 834 832 830 829 828 829 830 831 829 823 819 818 817 815 812 810 810 808 807 805 803 801 797 794 792 790
845 843 842 842 840 838 837 835 834 832 831 830 829 829 830 830 830 823 818 815 813 812 810 809 808 806 804 801 798 795 791 789 788